BREEZE-M DEB (TANK), 40260

Orbit data source: Space-Track

BREEZE-M DEB (TANK), 40260 is space debris in HEO originally from a launch on Sat, 27 Sep 2014 UTC launched from the Tyuratam Missile And Space Complex (TTMTR). Debris objects in space refer to the collection of defunct objects orbiting the Earth. Examples of debris include non-operational satellites, rocket bodies, and fragments generated from explosions, collisions, or faulty payload assembly.

Loading next visibility...
Identifier
40260, 2014-058C
Orbit
HEO
Last TLE update
1 day ago
Origin
Manufacturer
Khrunichev
Mission
Spacecraft
Bus & Motor
BRIZ TANK, Unknown motor
Mass
~1,000 kg wet, 1,000 kg dry
Launch date (UTC)
2014-09-27 (11 years ago)
Launch vehicle
Unknown
Launch site
Tyuratam Missile And Space Complex (TTMTR)
Object type
Payload
Rocket body
Debris
Shape & HBR
Torus, 4 m
Radar Cross Section
8.218 m², Large (>1 m²)

Expand to show TLE details & history

TLE from 1 day ago
0 BREEZE-M DEB (TANK)
1 40260U 14058C   25128.51641014 -.00000059  00000-0 -81428-4 0  9993
2 40260  45.4808  39.4872 7026238 316.2272   6.0453  2.27186342 88039
Epoch: 2025-05-08T12:23Z
Definitive object data (Epoch: 2025-05-08T12:23:37.836Z)
Latitude
0.00082°
Longitude
-13.04183°
Altitude
1,840.87 km
Speed
8.983 km/s
True Right ascension
02h 37m 48s
True Declination
0° 00' 03"
Sunlit
Object was in daylight at TLE epoch
Visualization TLE readout
Latitude
1.72973°
Longitude
164.94615°
Altitude
20,032.382 km
Speed
3.725 km/s
Apparent Right ascension
14h 29m 08s
Apparent Declination
-5° 58' 26"
Sunlit
Object is in daylight
Visualization observer readout
Local Sidereal Time
02:25:50
Azimuth
358.527° N
Elevation
-56.05°
Doppler factor
1
Orbital elements
Apogee altitude
35,240.427 km
Perigee altitude
890.862 km
Semi-major axis
24,443.781 km
Eccentricity
0.7026238
Inclination
45.4808°
RAAN
39.4872°
Arg. of periapsis
316.2272°
True anomaly
44.59773°
Mean anomaly
6.0453°
Eccentric anomaly
19.45109°
Mean motion
0.56792 °/min
BSTAR
-0.000081428
Orbital period
633.89 mins
Loading maneuver chart data...
Loading SW <> Apogee altitude chart data...
Loading historical data...
Loading historical data...
Loading historical data...
Loading historical data...
Loading historical data...
Loading historical data...
Loading historical data...
Other satellites on launch #58 in the year 2014 (2014-09-27 UTC)

BREEZE-M DEB (TANK) Visibility forecast

Observer location: undefined°, undefined°

Span
Click to sort rows by Start time (UTC) header in descending order
Start Az.
Max El. time (UTC)
Max El. Az.
Max El.
End time (UTC)
End Az.
565 mins2025-05-09 20:09:03.656Z210.406° SW2025-05-09 20:26:03.656Z131.28° SE43.235°2025-05-10 05:34:03.656Z149.61° SSE
55 mins2025-05-10 17:20:03.656Z121.945° SE2025-05-10 17:33:03.656Z84.232° E19.788°2025-05-10 18:15:03.656Z54.604° ENE
|